Regional Weather Roundup
Issued by NWS

Home | Current Version | Previous Version | Text Only | Print | Product List | Glossary On
Versions: 1 2 3 4 5 6 7 8 9 10 11 12 13 14 15 16 17 18 19 20 21 22 23 24 25 26 27
000
ASUS45 KBOU 181706
RWRCO

WEATHER ROUNDUP FOR COLORADO
NATIONAL WEATHER SERVICE DENVER/BOULDER CO
1100 AM MDT FRI APR 18 2014

NOTE: "FAIR" INDICATES FEW OR NO CLOUDS BELOW 12000 FEET WITH NO
SIGNIFICANT WEATHER AND/OR OBSTRUCTIONS TO VISIBILITY.

COZ001>005-013-030-031-181800-
...NORTHWEST COLORADO...

CITY           SKY/WX    TMP DP  RH WIND       PRES   REMARKS
CRAIG          PTSUNNY   62  32  32 N7        30.02F
HAYDEN         PTSUNNY   59  28  31 E8        30.07F
MEEKER         MOSUNNY   66  25  21 SW20G29   30.05S
MOUNT WERNER   PTSUNNY   46  12  25 S17G24    30.27R
STEAMBOAT SPGS PTSUNNY   57  23  26 CALM      30.07F
WALDEN         CLOUDY    54  23  30 S14       30.12F
$$

COZ006>008-011-181800-
...WEST CENTRAL VALLEYS...

CITY           SKY/WX    TMP DP  RH WIND       PRES   REMARKS
GRAND JUNCTION PTSUNNY   60  28  29 SE10      30.01F
MONTROSE       PTSUNNY   66  28  24 N6        30.08F
EAGLE          MOSUNNY   52  27  37 CALM      30.14F
RIFLE          PTSUNNY   55  29  36 CALM      30.06F
DELTA          PTSUNNY   64  30  27 NE7       30.06F
NUCLA            N/A     64  27  24 CALM      30.11F
$$

COZ017>023-064>068-181800-
...SOUTHWEST COLORADO...

CITY           SKY/WX    TMP DP  RH WIND       PRES   REMARKS
DURANGO        SUNNY     60  21  22 VRB7      30.17F
CORTEZ         SUNNY     72  25  17 SE14G20   30.09F
PAGOSA SPRINGS SUNNY     58  19  21 S6        30.23S
TELLURIDE      PTSUNNY   55  19  24 S13G20    30.23F
WOLF CREEK PAS SUNNY     37  19  48 SW16G24   30.39S
$$

COZ009-010-012-014-032>034-037-058>063-181800-
...CENTRAL COLORADO...

CITY           SKY/WX    TMP DP  RH WIND       PRES   REMARKS
ASPEN          PTSUNNY   60  21  22 SW13      30.14S
BUENA VISTA    PTSUNNY   56  22  26 SE9       30.18F
COPPER MTN     PTSUNNY   41  18  38 W20G31    30.33F
BERTHOUD PASS  FAIR      36  28  75 W25G31    30.35F
COTTONWOOD PAS PTSUNNY   52  21  30 S9G16     30.25S
GUNNISON       MOSUNNY   48  23  37 CALM      30.24F
KREMMLING      PTSUNNY   50  23  34 E5        30.16F
LEADVILLE      PTSUNNY   46  16  30 S12       30.23F
MONARCH PASS   MOSUNNY   39  19  45 W23G32    30.46R
SALIDA         PTSUNNY   63  21  20 SE9       30.23F
SUNLIGHT       PTSUNNY   45  27  49 CALM      30.30S
WILKERSON PASS MOSUNNY   45  23  42 SW7       30.33S
$$

COZ069>075-181800-
...SAN LUIS VALLEY/SANGRE DE CRISTO MOUNTAINS...

CITY           SKY/WX    TMP DP  RH WIND       PRES   REMARKS
ALAMOSA        SUNNY     55  29  36 CALM      30.21F
LA VETA PASS   SUNNY     48  21  34 SW13G21   30.29S
SAGUACHE       SUNNY     54  23  30 SE6       30.24S
$$

COZ035-036-038>040-181800-
...NORTHERN COLORADO FRONT RANGE...

CITY           SKY/WX    TMP DP  RH WIND       PRES   REMARKS
DENVER INTL AP PTSUNNY   71  24  17 SE10      29.99S
DMNS CITY PARK   N/A     72  24  16 E2G12     29.97F
AURORA         PTSUNNY   70  23  17 SE8       30.01S
FRONT RANGE AP PTSUNNY   72  25  17 CALM      30.01S
ERIE MUNI ARPT MOSUNNY   65  34  31 CALM      29.97F
BOULDER MUN AP MOSUNNY   66  34  30 SE5       29.97F
CENTENNIAL     PTSUNNY   69  23  17 VRB5      30.01S
BROOMFIELD     PTSUNNY   68  27  21 SE9       30.00S
FORT COLLINS   PTSUNNY   64  37  36 SE5       29.99F
LONGMONT       PTSUNNY   70  33  25 S3        29.98F
$$

COZ041-046-047-076>085-087-088-181800-
...PIKES PEAK/PALMER DIVIDE AND SOUTHERN FOOTHILLS...

CITY           SKY/WX    TMP DP  RH WIND       PRES   REMARKS
COLO. SPRINGS  MOSUNNY   62  35  36 SE7       30.07S
A. F. ACADEMY  SUNNY     64  29  26 S13       30.07S
ELLICOTT       NOT AVBL
FALCON         SUNNY     65  24  21 S7        30.10S
FORT CARSON    SUNNY     60  35  39 VRB1      30.05S
LIMON          SUNNY     65  37  35 SE12      30.03F
MONUMENT HILL  MOSUNNY   64  23  20 CALM      30.07S
TRINIDAD       SUNNY     68  26  20 VRB5      30.08F
$$

COZ042>045-048>051-090-091-181800-
...NORTHEAST COLORADO...

CITY           SKY/WX    TMP DP  RH WIND       PRES   REMARKS
GREELEY ARPT   MOSUNNY   63  37  39 CALM      29.98F
AKRON          SUNNY     71  25  17 S9        29.98F
BURLINGTON     MOSUNNY   63  38  39 SW17G23   30.03F
WRAY           SUNNY     66  38  35 S10       29.99F
STERLING       SUNNY     66  43  42 SW8       29.95S
HOLYOKE        SUNNY     68  36  30 S16       29.97S
FORT MORGAN    SUNNY     67  34  29 S5        29.97F
$$

COZ086-089-092>099-181800-
...SOUTHEAST COLORADO...

CITY           SKY/WX    TMP DP  RH WIND       PRES   REMARKS
PUEBLO         SUNNY     56  39  53 VRB3      30.03F
LA JUNTA       SUNNY     59  37  44 VRB7      30.04F
LAMAR          SUNNY     63  39  41 CALM      30.02F
SPRINGFIELD      N/A     63  37  38 S21       30.06S
$$



USA.gov is the U.S. government's official web portal to all federal, state and local government web resources and services.